User: anonymous   Login
Location: Jetmore Oil Field
(38.1181°N, 99.9337°W)
Time: 01:41:48
(UTC+00:00)
Language:

STARLINK-2616 - Orbit

View from above orbital plane
View from above orbital plane
View from above satellite
View from above satellite

Ground track
Ground track

The orbit data is extracted from the following two-line orbital elements,

1 48695C 21044BK  21268.76776160 -.00967802  00000-0 -59153-1 0  2689
2 48695  53.0407 185.6852 0001503  61.8187 359.9923 15.10738250    11
Epoch (UTC): 25 September 2021 18:25:34
Eccentricity: 0.0001503
inclination: 53.0407°
perigee height: 533 km
apogee height: 535 km
right ascension of ascending node: 185.6852°
argument of perigee: 61.8187°
revolutions per day: 15.10738250
mean anomaly at epoch: 359.9923°
orbit number at epoch: 1

The dashed part of the orbit path shows where the satellite is in the earth's shadow,  

DLR